Date String (YYYY-MM-DD hh:mm:ss) UTC,Instrument flags,Ambient pressure (hPa),Sample flow (lpm),Bypass flow (lpm),Sample temperature (°C),Ambient temperature (°C),ASC tube jacket temperature (°C),LED temperature (°C),Box temperature (°C),Sample RH (%),Span deviation,Mass concentration (μg/m³),Mass concentration (μg/m³),Mass concentration (μg/m³)
DateTimeUTC,F1_M11,P_M11,Q1_M11,Q2_M11,T1_M11,T2_M11,T3_M11,T4_M11,T5_M11,U1_M11,ZSPAN_M11,X0_M11,X2_M11,X1_M11
2022-04-11 22:00:00,,0808.6,5.00,0.00,27.2,26.6,00.0,36.0,29.1,07.3,0000.0,0027.60,0006.43,0002.96
2022-04-11 22:01:00,,0808.5,4.99,0.00,27.3,26.6,00.0,36.1,29.2,07.4,0000.0,0026.84,0006.45,0002.94
2022-04-11 22:02:00,,0808.6,5.02,0.00,27.3,26.7,00.0,36.1,29.2,07.4,0000.0,0026.14,0006.38,0002.91
2022-04-11 22:03:00,,0808.6,4.98,0.00,27.3,26.7,00.0,36.1,29.2,07.2,0000.0,0025.31,0006.36,0002.91
2022-04-11 22:04:00,,0808.5,5.01,0.00,27.3,26.7,00.0,36.1,29.2,07.1,0000.0,0024.46,0006.40,0002.88
2022-04-11 22:05:00,,0808.5,4.99,0.00,27.3,26.7,00.0,36.1,29.3,07.1,0000.0,0024.35,0006.44,0002.87
2022-04-11 22:06:00,,0808.5,5.01,0.00,27.4,26.7,00.0,36.1,29.3,07.1,0000.0,0024.33,0006.43,0002.88
2022-04-11 22:07:00,,0808.4,4.99,0.00,27.4,26.8,00.0,36.2,29.3,07.3,0000.0,0024.12,0006.38,0002.86
2022-04-11 22:08:00,,0808.4,5.00,0.00,27.4,26.8,00.0,36.2,29.3,07.2,0000.0,0024.17,0006.44,0002.88
2022-04-11 22:09:00,,0808.4,5.01,0.00,27.4,26.8,00.0,36.2,29.4,07.2,0000.0,0024.92,0006.44,0002.91
2022-04-11 22:10:00,,0808.3,5.00,0.00,27.5,26.8,00.0,36.2,29.4,07.3,0000.0,0024.66,0006.48,0002.94
2022-04-11 22:11:00,,0808.3,4.99,0.00,27.5,26.8,00.0,36.2,29.4,07.4,0000.0,0024.01,0006.46,0002.95
2022-04-11 22:12:00,,0808.3,5.01,0.00,27.5,26.8,00.0,36.2,29.4,07.1,0000.0,0023.93,0006.40,0002.91
2022-04-11 22:13:00,,0808.2,4.98,0.00,27.5,26.8,00.0,36.3,29.3,07.1,0000.0,0023.61,0006.39,0002.86
2022-04-11 22:14:00,,0808.3,5.00,0.00,27.5,26.8,00.0,36.3,29.3,07.4,0000.0,0022.98,0006.30,0002.84
2022-04-11 22:15:00,,0808.3,5.00,0.00,27.5,26.8,00.0,36.3,29.4,07.5,0000.0,0021.96,0006.20,0002.82
2022-04-11 22:16:00,,0808.3,4.98,0.00,27.5,26.9,00.0,36.3,29.4,07.2,0000.0,0022.25,0006.12,0002.77
2022-04-11 22:17:00,,0808.3,5.01,0.00,27.5,26.9,00.0,36.3,29.4,07.4,0000.0,0021.25,0006.05,0002.75
2022-04-11 22:18:00,,0808.4,5.00,0.00,27.6,26.9,00.0,36.3,29.4,07.4,0000.0,0019.25,0005.90,0002.73
2022-04-11 22:19:00,,0808.4,4.98,0.00,27.6,26.9,00.0,36.3,29.4,07.3,0000.0,0018.88,0005.85,0002.70
2022-04-11 22:20:00,,0808.3,5.01,0.00,27.6,26.9,00.0,36.4,29.5,07.3,0000.0,0018.70,0005.84,0002.67
2022-04-11 22:21:00,,0808.3,4.98,0.00,27.6,26.9,00.0,36.4,29.5,07.4,0000.0,0019.38,0005.79,0002.64
2022-04-11 22:22:00,,0808.3,4.99,0.00,27.6,26.9,00.0,36.4,29.5,07.4,0000.0,0020.56,0005.86,0002.64
2022-04-11 22:23:00,,0808.3,5.02,0.00,27.6,26.9,00.0,36.4,29.5,07.3,0000.0,0021.29,0005.94,0002.65
2022-04-11 22:24:00,,0808.3,5.00,0.00,27.6,26.9,00.0,36.4,29.5,07.5,0000.0,0022.59,0005.98,0002.65
2022-04-11 22:25:00,,0808.3,4.99,0.00,27.6,26.9,00.0,36.4,29.4,07.4,0000.0,0023.60,0006.05,0002.64
2022-04-11 22:26:00,,0808.3,5.02,0.00,27.6,26.9,00.0,36.4,29.4,07.4,0000.0,0024.74,0006.14,0002.65
2022-04-11 22:27:00,,0808.3,4.98,0.00,27.6,26.9,00.0,36.4,29.4,07.4,0000.0,0024.47,0006.16,0002.68
2022-04-11 22:28:00,,0808.4,5.00,0.00,27.6,26.9,00.0,36.5,29.4,07.4,0000.0,0024.68,0006.24,0002.70
2022-04-11 22:29:00,,0808.3,5.00,0.00,27.6,26.9,00.0,36.5,29.4,07.2,0000.0,0026.46,0006.41,0002.72
2022-04-11 22:30:00,,0808.3,5.00,0.00,27.6,26.9,00.0,36.5,29.4,07.3,0000.0,0027.67,0006.41,0002.72
2022-04-11 22:31:00,,0808.3,5.00,0.00,27.6,26.9,00.0,36.5,29.4,07.4,0000.0,0027.26,0006.38,0002.74
2022-04-11 22:32:00,,0808.3,5.00,0.00,27.6,26.9,00.0,36.5,29.5,07.2,0000.0,0026.53,0006.35,0002.76
2022-04-11 22:33:00,,0808.3,4.99,0.00,27.6,26.9,00.0,36.5,29.5,07.2,0000.0,0026.12,0006.24,0002.76
2022-04-11 22:34:00,,0808.3,4.99,0.00,27.7,27.0,00.0,36.5,29.5,07.2,0000.0,0026.27,0006.16,0002.76
2022-04-11 22:35:00,,0808.3,5.00,0.00,27.7,27.0,00.0,36.5,29.5,07.3,0000.0,0025.30,0006.18,0002.76
2022-04-11 22:36:00,,0808.3,5.00,0.00,27.7,27.0,00.0,36.5,29.5,07.3,0000.0,0025.27,0006.17,0002.76
2022-04-11 22:37:00,,0808.2,5.00,0.00,27.7,27.0,00.0,36.5,29.6,07.2,0000.0,0024.27,0006.12,0002.74
2022-04-11 22:38:00,,0808.2,5.01,0.00,27.7,27.0,00.0,36.6,29.6,07.2,0000.0,0024.97,0006.18,0002.73
2022-04-11 22:39:00,,0808.2,4.98,0.00,27.7,27.0,00.0,36.6,29.6,07.4,0000.0,0025.55,0006.14,0002.73
2022-04-11 22:40:00,,0808.1,4.99,0.00,27.7,27.0,00.0,36.6,29.6,07.3,0000.0,0024.80,0006.06,0002.72
2022-04-11 22:41:00,,0808.1,5.01,0.00,27.7,27.0,00.0,36.6,29.6,07.5,0000.0,0024.21,0006.05,0002.69
2022-04-11 22:42:00,,0808.1,5.01,0.00,27.8,27.0,00.0,36.6,29.6,07.2,0000.0,0023.98,0006.07,0002.65
2022-04-11 22:43:00,,0808.0,4.99,0.00,27.8,27.1,00.0,36.6,29.6,07.1,0000.0,0024.17,0006.00,0002.61
2022-04-11 22:44:00,,0808.0,5.00,0.00,27.8,27.1,00.0,36.6,29.6,07.3,0000.0,0024.47,0006.01,0002.57
2022-04-11 22:45:00,,0808.0,5.01,0.00,27.8,27.1,00.0,36.6,29.7,07.3,0000.0,0023.57,0006.04,0002.57
2022-04-11 22:46:00,,0808.0,4.99,0.00,27.8,27.1,00.0,36.6,29.7,07.6,0000.0,0023.62,0005.97,0002.58
2022-04-11 22:47:00,,0808.0,4.99,0.00,27.8,27.1,00.0,36.6,29.7,07.5,0000.0,0022.98,0005.98,0002.58
2022-04-11 22:48:00,,0808.0,5.02,0.00,27.8,27.2,00.0,36.7,29.7,07.4,0000.0,0024.59,0005.95,0002.55
2022-04-11 22:49:00,,0808.0,4.98,0.00,27.9,27.2,00.0,36.7,29.7,07.4,0000.0,0025.17,0005.94,0002.54
2022-04-11 22:50:00,,0808.0,5.01,0.00,27.9,27.2,00.0,36.7,29.7,07.1,0000.0,0024.87,0005.96,0002.50
2022-04-11 22:51:00,,0808.0,5.01,0.00,27.9,27.2,00.0,36.7,29.7,07.4,0000.0,0025.63,0005.95,0002.48
2022-04-11 22:52:00,,0807.9,4.99,0.00,27.9,27.2,00.0,36.7,29.7,07.4,0000.0,0026.56,0005.88,0002.48
2022-04-11 22:53:00,,0807.9,5.00,0.00,27.9,27.2,00.0,36.7,29.7,07.2,0000.0,0027.39,0005.88,0002.48
2022-04-11 22:54:00,,0807.8,5.01,0.00,27.9,27.2,00.0,36.7,29.7,07.4,0000.0,0027.31,0005.97,0002.50
2022-04-11 22:55:00,,0807.7,4.98,0.00,27.9,27.2,00.0,36.7,29.7,07.4,0000.0,0027.12,0005.97,0002.50
2022-04-11 22:56:00,,0807.7,5.00,0.00,27.9,27.2,00.0,36.7,29.7,07.5,0000.0,0026.81,0005.91,0002.49
2022-04-11 22:57:00,,0807.7,5.01,0.00,27.9,27.2,00.0,36.8,29.7,07.4,0000.0,0026.55,0005.95,0002.45
2022-04-11 22:58:00,,0807.8,5.00,0.00,27.9,27.2,00.0,36.8,29.7,07.4,0000.0,0027.09,0005.95,0002.43
2022-04-11 22:59:00,,0807.7,5.00,0.00,27.9,27.2,00.0,36.8,29.7,07.5,0000.0,0026.38,0005.96,0002.45
